JZA8694 CYYZ-KBOS

Flight info

Callsign JZA8694
Flight time 1h 0m
Altitude 33000
Route KEPTA3 BMPAH DCT AEVON DCT HANKK DCT PONCT JFUND2
Aircraft E175/M-SDE3GILORVW/S

Departure

Time 2026-05-07 22:41
Airport Toronto Pearson International Airport (CYYZ)

Arrival

Time 2026-05-07 23:42
Airport Boston Logan International Airport (KBOS)
Time Latitude Longitude Altitude Speed Heading
2026-05-07 22:25 43.67880 -79.61064 563 ft 0 kts 271°
2026-05-07 22:33 43.67880 -79.61055 559 ft 4 kts 271°
2026-05-07 22:34 43.67880 -79.61018 559 ft 4 kts 264°
2026-05-07 22:34 43.67887 -79.60984 563 ft 4 kts 226°
2026-05-07 22:34 43.67898 -79.60977 564 ft 1 kts 182°
2026-05-07 22:36 43.67894 -79.60977 564 ft 2 kts 182°
2026-05-07 22:36 43.67860 -79.60975 563 ft 7 kts 167°
2026-05-07 22:36 43.67810 -79.60934 566 ft 9 kts 135°
2026-05-07 22:37 43.67758 -79.60865 559 ft 12 kts 136°
2026-05-07 22:37 43.67695 -79.60781 563 ft 11 kts 135°
2026-05-07 22:37 43.67678 -79.60680 559 ft 11 kts 104°
2026-05-07 22:37 43.67650 -79.60582 559 ft 11 kts 77°
2026-05-07 22:38 43.67703 -79.60492 559 ft 13 kts 47°
2026-05-07 22:38 43.67770 -79.60394 559 ft 15 kts 46°
2026-05-07 22:38 43.67848 -79.60280 565 ft 17 kts 47°
2026-05-07 22:38 43.67934 -79.60155 562 ft 19 kts 46°
2026-05-07 22:39 43.68024 -79.60025 560 ft 17 kts 47°
2026-05-07 22:39 43.68077 -79.59904 559 ft 15 kts 107°
2026-05-07 22:39 43.68023 -79.59815 557 ft 6 kts 136°
2026-05-07 22:39 43.68021 -79.59813 557 ft 0 kts 136°
2026-05-07 22:40 43.68012 -79.59801 558 ft 5 kts 136°
2026-05-07 22:40 43.67975 -79.59751 559 ft 9 kts 135°
2026-05-07 22:40 43.67912 -79.59734 558 ft 11 kts 199°
2026-05-07 22:40 43.67824 -79.59844 560 ft 30 kts 227°
2026-05-07 22:41 43.67569 -79.60218 565 ft 86 kts 227°
2026-05-07 22:41 43.66968 -79.61090 565 ft 163 kts 227°
2026-05-07 22:41 43.66097 -79.62302 1266 ft 183 kts 229°
2026-05-07 22:41 43.65215 -79.63510 2362 ft 177 kts 229°
2026-05-07 22:42 43.64339 -79.64713 3269 ft 172 kts 230°
2026-05-07 22:42 43.63518 -79.65950 3959 ft 185 kts 231°
2026-05-07 22:42 43.62559 -79.67311 4433 ft 212 kts 222°
2026-05-07 22:42 43.61181 -79.68326 4958 ft 239 kts 199°
2026-05-07 22:43 43.59451 -79.68593 5542 ft 261 kts 182°
2026-05-07 22:43 43.57625 -79.68101 6290 ft 276 kts 158°
2026-05-07 22:43 43.56119 -79.66423 7108 ft 287 kts 128°
2026-05-07 22:43 43.55228 -79.63925 7858 ft 295 kts 112°
2026-05-07 22:44 43.54654 -79.61216 8543 ft 303 kts 104°
2026-05-07 22:44 43.54330 -79.58307 9245 ft 312 kts 97°
2026-05-07 22:44 43.54112 -79.55290 9911 ft 321 kts 98°
2026-05-07 22:44 43.53809 -79.52179 10301 ft 339 kts 100°
2026-05-07 22:45 43.53430 -79.48860 10526 ft 362 kts 101°
2026-05-07 22:45 43.53012 -79.45377 11007 ft 373 kts 101°
2026-05-07 22:45 43.52683 -79.41806 11711 ft 379 kts 94°
2026-05-07 22:45 43.52435 -79.38187 12481 ft 380 kts 104°
2026-05-07 22:46 43.51577 -79.34808 13315 ft 379 kts 117°
2026-05-07 22:46 43.50472 -79.31497 14158 ft 383 kts 119°
2026-05-07 22:46 43.49342 -79.28147 14984 ft 387 kts 119°
2026-05-07 22:46 43.48201 -79.24760 15812 ft 392 kts 120°
2026-05-07 22:47 43.47044 -79.21335 16614 ft 397 kts 120°
2026-05-07 22:47 43.45868 -79.17870 17432 ft 402 kts 121°
2026-05-07 22:47 43.44669 -79.14365 18230 ft 408 kts 121°
2026-05-07 22:47 43.43462 -79.10822 18914 ft 413 kts 120°
2026-05-07 22:48 43.42331 -79.07209 19551 ft 420 kts 118°
2026-05-07 22:48 43.41205 -79.03479 20210 ft 425 kts 118°
2026-05-07 22:48 43.40058 -78.99709 20833 ft 429 kts 118°
2026-05-07 22:48 43.38887 -78.95909 21430 ft 434 kts 118°
2026-05-07 22:49 43.37696 -78.92076 22001 ft 439 kts 118°
2026-05-07 22:49 43.36490 -78.88205 22590 ft 443 kts 118°
2026-05-07 22:49 43.35267 -78.84286 23193 ft 448 kts 118°
2026-05-07 22:49 43.34030 -78.80331 23720 ft 453 kts 118°
2026-05-07 22:50 43.32780 -78.76339 24239 ft 458 kts 118°
2026-05-07 22:50 43.31514 -78.72302 24765 ft 462 kts 118°
2026-05-07 22:50 43.30253 -78.68290 25267 ft 467 kts 118°
2026-05-07 22:50 43.28964 -78.64195 25853 ft 469 kts 119°
2026-05-07 22:51 43.27669 -78.60082 26504 ft 468 kts 119°
2026-05-07 22:51 43.26373 -78.55975 27095 ft 470 kts 119°
2026-05-07 22:51 43.25069 -78.51856 27663 ft 471 kts 120°
2026-05-07 22:51 43.23763 -78.47733 28229 ft 472 kts 120°
2026-05-07 22:52 43.22451 -78.43600 28787 ft 474 kts 120°
2026-05-07 22:52 43.21133 -78.39453 29344 ft 475 kts 120°
2026-05-07 22:52 43.19806 -78.35286 29893 ft 477 kts 121°
2026-05-07 22:52 43.18280 -78.31295 30273 ft 469 kts 132°
2026-05-07 22:53 43.16375 -78.27792 30685 ft 463 kts 139°
2026-05-07 22:53 43.14296 -78.24429 31102 ft 463 kts 141°
2026-05-07 22:53 43.12205 -78.21056 31510 ft 466 kts 140°
2026-05-07 22:53 43.10125 -78.17643 31911 ft 468 kts 140°
2026-05-07 22:54 43.08050 -78.14190 32302 ft 471 kts 140°
2026-05-07 22:54 43.05972 -78.10711 32710 ft 473 kts 140°
2026-05-07 22:54 43.03904 -78.07242 33046 ft 469 kts 140°
2026-05-07 22:54 43.01844 -78.03794 32944 ft 466 kts 141°
2026-05-07 22:55 42.99819 -78.00417 32942 ft 468 kts 141°
2026-05-07 22:55 42.97722 -77.96950 32972 ft 480 kts 141°
2026-05-07 22:55 42.95574 -77.93397 33016 ft 490 kts 140°
2026-05-07 22:55 42.93382 -77.89755 32960 ft 505 kts 138°
2026-05-07 22:56 42.91488 -77.85569 32941 ft 535 kts 121°
2026-05-07 22:56 42.90464 -77.80577 32948 ft 559 kts 101°
2026-05-07 22:56 42.90323 -77.75251 32956 ft 564 kts 90°
2026-05-07 22:57 42.90526 -77.64522 32916 ft 568 kts 91°
2026-05-07 22:57 42.90395 -77.53840 32904 ft 567 kts 94°
2026-05-07 22:58 42.90146 -77.43099 32887 ft 567 kts 94°
2026-05-07 22:58 42.89900 -77.32356 32888 ft 566 kts 94°
2026-05-07 22:59 42.89648 -77.21628 32915 ft 566 kts 94°
2026-05-07 22:59 42.89380 -77.10968 32912 ft 565 kts 94°
2026-05-07 23:00 42.89043 -77.00255 32927 ft 566 kts 95°
2026-05-07 23:00 42.88698 -76.89534 32923 ft 566 kts 95°
2026-05-07 23:01 42.88350 -76.78802 32932 ft 567 kts 95°
2026-05-07 23:01 42.87994 -76.68131 32930 ft 568 kts 95°
2026-05-07 23:02 42.87627 -76.57382 32799 ft 565 kts 95°
2026-05-07 23:02 42.87439 -76.52047 32959 ft 568 kts 95°
2026-05-07 23:02 42.87248 -76.46665 32936 ft 568 kts 95°
2026-05-07 23:03 42.86859 -76.35907 32911 ft 567 kts 95°
2026-05-07 23:03 42.86461 -76.25166 32925 ft 567 kts 95°
2026-05-07 23:04 42.86055 -76.14517 32904 ft 565 kts 95°
2026-05-07 23:04 42.85638 -76.03806 32909 ft 565 kts 95°
2026-05-07 23:05 42.85213 -75.93117 32905 ft 564 kts 95°
2026-05-07 23:05 42.84776 -75.82440 32906 ft 564 kts 96°
2026-05-07 23:06 42.84333 -75.71850 32898 ft 563 kts 96°
2026-05-07 23:06 42.83878 -75.61201 32896 ft 563 kts 96°
2026-05-07 23:07 42.83412 -75.50564 32891 ft 562 kts 96°
2026-05-07 23:07 42.82940 -75.39942 32896 ft 562 kts 96°
2026-05-07 23:08 42.82462 -75.29395 32896 ft 561 kts 96°
2026-05-07 23:08 42.81970 -75.18811 32906 ft 560 kts 96°
2026-05-07 23:09 42.81467 -75.08222 32891 ft 559 kts 96°
2026-05-07 23:09 42.80957 -74.97668 32911 ft 558 kts 96°
2026-05-07 23:10 42.80440 -74.87133 32899 ft 557 kts 96°
2026-05-07 23:10 42.79921 -74.76675 32890 ft 557 kts 96°
2026-05-07 23:11 42.79388 -74.66166 32885 ft 556 kts 97°
2026-05-07 23:11 42.78844 -74.55661 32894 ft 556 kts 97°
2026-05-07 23:12 42.78300 -74.45170 32885 ft 555 kts 97°
2026-05-07 23:12 42.77736 -74.34682 32895 ft 555 kts 97°
2026-05-07 23:13 42.77177 -74.24278 32866 ft 554 kts 97°
2026-05-07 23:13 42.76599 -74.13812 32885 ft 554 kts 97°
2026-05-07 23:14 42.76021 -74.03343 32872 ft 554 kts 97°
2026-05-07 23:14 42.75430 -73.92893 32882 ft 554 kts 98°
2026-05-07 23:15 42.74831 -73.82507 32868 ft 553 kts 98°
2026-05-07 23:15 42.74513 -73.72038 32877 ft 556 kts 92°
2026-05-07 23:16 42.74525 -73.61523 32868 ft 555 kts 92°
2026-05-07 23:16 42.74463 -73.51043 32875 ft 554 kts 93°
2026-05-07 23:17 42.74375 -73.40635 32853 ft 553 kts 93°
2026-05-07 23:17 42.74278 -73.30171 32858 ft 553 kts 93°
2026-05-07 23:18 42.74167 -73.19711 32845 ft 552 kts 94°
2026-05-07 23:18 42.73874 -73.09306 32871 ft 548 kts 100°
2026-05-07 23:19 42.72711 -72.99089 32833 ft 545 kts 104°
2026-05-07 23:19 42.71403 -72.89011 32420 ft 545 kts 110°
2026-05-07 23:19 42.70532 -72.84019 32362 ft 534 kts 107°
2026-05-07 23:20 42.69917 -72.79103 33348 ft 522 kts 101°
2026-05-07 23:20 42.69539 -72.74211 33612 ft 526 kts 99°
2026-05-07 23:20 42.69135 -72.69179 32487 ft 542 kts 101°
2026-05-07 23:21 42.68047 -72.59151 32551 ft 534 kts 105°
2026-05-07 23:21 42.66759 -72.49168 32093 ft 535 kts 104°
2026-05-07 23:22 42.65549 -72.39359 32058 ft 530 kts 104°
2026-05-07 23:22 42.64325 -72.29447 31051 ft 540 kts 104°
2026-05-07 23:22 42.63732 -72.24392 29789 ft 544 kts 103°
2026-05-07 23:23 42.63163 -72.19382 28198 ft 529 kts 103°
2026-05-07 23:23 42.62610 -72.14513 26546 ft 513 kts 103°
2026-05-07 23:23 42.62072 -72.09862 24893 ft 500 kts 103°
2026-05-07 23:23 42.61531 -72.05264 23111 ft 488 kts 103°
2026-05-07 23:24 42.60994 -72.00756 21026 ft 477 kts 104°
2026-05-07 23:24 42.60447 -71.96364 19046 ft 468 kts 105°
2026-05-07 23:24 42.59910 -71.92081 17750 ft 447 kts 105°
2026-05-07 23:24 42.59409 -71.88040 16609 ft 423 kts 104°
2026-05-07 23:25 42.58925 -71.84181 15413 ft 407 kts 104°
2026-05-07 23:25 42.58459 -71.80509 14824 ft 383 kts 105°
2026-05-07 23:25 42.57921 -71.76995 14356 ft 379 kts 107°
2026-05-07 23:25 42.57337 -71.73520 13837 ft 377 kts 107°
2026-05-07 23:26 42.56768 -71.70067 13312 ft 373 kts 106°
2026-05-07 23:26 42.56229 -71.66720 13111 ft 367 kts 106°
2026-05-07 23:26 42.55683 -71.63324 12556 ft 369 kts 105°
2026-05-07 23:26 42.55148 -71.59950 12157 ft 363 kts 105°
2026-05-07 23:27 42.53895 -71.53360 11417 ft 362 kts 109°
2026-05-07 23:27 42.53188 -71.50140 11168 ft 354 kts 108°
2026-05-07 23:27 42.52499 -71.46935 10896 ft 354 kts 108°
2026-05-07 23:28 42.51823 -71.43726 10620 ft 353 kts 107°
2026-05-07 23:28 42.51165 -71.40579 10345 ft 351 kts 107°
2026-05-07 23:28 42.50503 -71.37408 10062 ft 349 kts 107°
2026-05-07 23:28 42.49869 -71.34345 9775 ft 325 kts 106°
2026-05-07 23:29 42.49307 -71.31515 9486 ft 315 kts 105°
2026-05-07 23:29 42.48748 -71.28670 9198 ft 309 kts 105°
2026-05-07 23:29 42.48197 -71.25882 8910 ft 304 kts 105°
2026-05-07 23:29 42.47646 -71.23128 8600 ft 301 kts 105°
2026-05-07 23:30 42.47098 -71.20401 8325 ft 298 kts 105°
2026-05-07 23:30 42.46555 -71.17703 8024 ft 296 kts 105°
2026-05-07 23:30 42.46027 -71.15068 7755 ft 293 kts 105°
2026-05-07 23:30 42.45672 -71.12362 7471 ft 291 kts 95°
2026-05-07 23:31 42.45490 -71.09635 7156 ft 290 kts 94°
2026-05-07 23:31 42.45304 -71.06936 6856 ft 287 kts 95°
2026-05-07 23:31 42.45087 -71.04288 6557 ft 275 kts 96°
2026-05-07 23:31 42.44900 -71.02144 6287 ft 259 kts 96°
2026-05-07 23:32 42.44629 -70.99789 5962 ft 249 kts 100°
2026-05-07 23:32 42.44309 -70.97524 5657 ft 248 kts 100°
2026-05-07 23:32 42.44229 -70.95183 5355 ft 253 kts 83°
2026-05-07 23:32 42.44519 -70.92824 5017 ft 254 kts 76°
2026-05-07 23:33 42.44919 -70.90499 4694 ft 253 kts 75°
2026-05-07 23:33 42.45315 -70.88176 4363 ft 253 kts 76°
2026-05-07 23:33 42.45689 -70.85847 4014 ft 254 kts 76°
2026-05-07 23:33 42.46045 -70.83532 3875 ft 245 kts 76°
2026-05-07 23:34 42.46370 -70.81370 3838 ft 226 kts 76°
2026-05-07 23:34 42.46678 -70.79321 3584 ft 226 kts 76°
2026-05-07 23:34 42.46993 -70.77252 3229 ft 231 kts 76°
2026-05-07 23:34 42.47279 -70.75112 3022 ft 225 kts 82°
2026-05-07 23:35 42.47153 -70.73045 3060 ft 224 kts 110°
2026-05-07 23:35 42.46192 -70.71399 3084 ft 227 kts 148°
2026-05-07 23:35 42.44721 -70.70648 3133 ft 228 kts 167°
2026-05-07 23:35 42.43185 -70.70055 3096 ft 229 kts 171°
2026-05-07 23:36 42.41639 -70.70204 2898 ft 221 kts 204°
2026-05-07 23:36 42.40580 -70.71579 2486 ft 211 kts 250°
2026-05-07 23:36 42.40377 -70.73444 2644 ft 190 kts 269°
2026-05-07 23:36 42.40170 -70.75280 3062 ft 207 kts 258°
2026-05-07 23:37 42.39793 -70.77139 3078 ft 209 kts 258°
2026-05-07 23:37 42.39489 -70.79001 3002 ft 194 kts 261°
2026-05-07 23:37 42.39192 -70.80729 2753 ft 181 kts 258°
2026-05-07 23:37 42.38909 -70.82284 2497 ft 161 kts 259°
2026-05-07 23:38 42.38668 -70.83679 2279 ft 145 kts 260°
2026-05-07 23:38 42.38448 -70.84942 2086 ft 130 kts 260°
2026-05-07 23:38 42.38252 -70.86057 1936 ft 116 kts 262°
2026-05-07 23:38 42.38067 -70.87122 1783 ft 116 kts 261°
2026-05-07 23:39 42.37879 -70.88189 1626 ft 117 kts 261°
2026-05-07 23:39 42.37692 -70.89254 1458 ft 117 kts 261°
2026-05-07 23:39 42.37505 -70.90322 1297 ft 116 kts 261°
2026-05-07 23:39 42.37321 -70.91369 1132 ft 114 kts 260°
2026-05-07 23:40 42.37136 -70.92426 990 ft 116 kts 260°
2026-05-07 23:40 42.36952 -70.93475 829 ft 114 kts 261°
2026-05-07 23:40 42.36768 -70.94518 687 ft 113 kts 259°
2026-05-07 23:40 42.36577 -70.95604 579 ft 123 kts 259°
2026-05-07 23:41 42.36378 -70.96728 421 ft 122 kts 259°
2026-05-07 23:41 42.36181 -70.97837 227 ft 122 kts 259°
2026-05-07 23:41 42.35994 -70.98920 52 ft 118 kts 260°
2026-05-07 23:41 42.35828 -70.99882 23 ft 89 kts 257°
2026-05-07 23:42 42.35717 -71.00495 26 ft 49 kts 258°
2026-05-07 23:42 42.35656 -71.00846 25 ft 34 kts 256°
2026-05-07 23:42 42.35661 -71.01145 23 ft 29 kts 295°
2026-05-07 23:42 42.35738 -71.01302 23 ft 12 kts 294°
2026-05-07 23:43 42.35742 -71.01314 23 ft 0 kts 292°
2026-05-07 23:43 42.35749 -71.01339 23 ft 6 kts 290°
2026-05-07 23:43 42.35771 -71.01420 24 ft 13 kts 289°
2026-05-07 23:43 42.35805 -71.01553 23 ft 16 kts 288°
2026-05-07 23:44 42.35833 -71.01711 25 ft 18 kts 282°
2026-05-07 23:44 42.35867 -71.01878 25 ft 20 kts 293°
2026-05-07 23:44 42.35941 -71.02054 23 ft 22 kts 302°
2026-05-07 23:44 42.36017 -71.02223 23 ft 17 kts 300°
2026-05-07 23:45 42.36105 -71.02334 23 ft 19 kts 332°
2026-05-07 23:45 42.36235 -71.02341 23 ft 18 kts 14°
2026-05-07 23:45 42.36274 -71.02224 23 ft 16 kts 89°
2026-05-07 23:45 42.36294 -71.02077 26 ft 15 kts 60°
2026-05-07 23:46 42.36339 -71.02020 23 ft 6 kts 34°
2026-05-07 23:46 42.36348 -71.01998 23 ft 3 kts 90°
2026-05-07 23:46 42.36342 -71.01985 23 ft 1 kts 154°
2026-05-07 23:46 42.36330 -71.01977 25 ft 3 kts 146°
2026-05-07 23:47 42.36322 -71.01969 24 ft 0 kts 144°